Location: Pedholt
(56.0260°N, 10.2097°E)
Time: 07:20:23
(UTC+00:00)

Transit 2A Rocket - Pass Details

Date: 29 July 2021
Orbit: 586 x 917 km, 66.7° (Epoch: 24 September)

Event Time Altitude Azimuth Distance (km) Brightness Sun altitude
Rises 17:43:14 0° 281° (W) 2,989 10.2 12.9°
Reaches altitude 10° 17:45:48 10° 294° (WNW) 2,129 9.7 12.6°
Maximum altitude 17:49:52 26° 352° (N) 1,408 6.8 12.0°
Drops below altitude 10° 17:54:15 10° 48° (NE) 2,315 7.2 11.4°
Sets 17:57:10 0° 61° (ENE) 3,307 7.9 11.0°
